map of PEE home
Great Circle Mapper logo
PEE - Airport
Location
City:  Perm, Russian Federation (Russia)
Name:Bolshoye Savino
ICAO / IATA:USPP / PEE

Details
Type:Airport (Aerodrome, Airfield)
Use:Public/Civil, Military
Latitude:5754'52"N (57.914517)
Longitude:5601'16"E (56.021214)
Datum:WGS 1984
Elevation:404 ft (123 m)
Variation:15.33E (WMM2015 magnetic declination)
0.10 annual change
Runways:1
Longest:10520 × 161 ft (3206 × 49 m), paved

Time
Time Zone:UTC+5 (DST+6)

Weather
METAR:USPP 181430Z 24007MPS 9999 BKN026CB BKN080 03/01 Q0997 21290150 NOSIG RMK QFE737/0983
TAF:USPP 181358Z 1815/1915 27007MPS 9999 BKN010 OVC100 530002
TEMPO 1815/1821 30012MPS 2000 SHRA BKN007 BKN020CB

Related Locations
Nearby:
Farthest:SCPZ: 10647 mi / 17134 km
Antartica (Antarctica) [Patriot Hills], MA, CL

Find:

   beyond  
but within

Other Information
Maps:
NOTAMs:
Links:
Sources:

  
flag of Russian Federation (Russia)   

Sectional Chart

Flight Planning
at skyvector.com

Satellite Image

Google Maps Satellite View

 

Copyright © 2004-2015 Karl L. Swartz. All rights reserved.
The Great Circle Mapper name and logo are trademarks of the Great Circle Mapper.
All other trademarks mentioned herein belong to their respective owners.
Please see credits for attibutions and further copyright information.

  Follow gcmap on Facebook Follow gcmap on Twitter Follow gcmap on Google+

hCard Microformat

Geo Microformat